Location: Unspecified
(48.2082°N, 0.0000°E)
Time: 15:20:32
(UTC+00:00)

Tiros 1 despin weight - Pass Details

Date: 27 June 2019
Orbit: 594 x 642 km, 48.2° (Epoch: 21 August)

Event Time Altitude Azimuth Distance (km) Brightness Sun altitude
Rises 23:41:08 0° 268° (W) 2,855 ? -18.3°
Reaches altitude 10° 23:43:27 10° 269° (W) 1,945 ? -18.4°
Maximum altitude 23:47:54 89° 351° (N) 603 ? -18.4°
Drops below altitude 10° 23:52:20 10° 90° (E) 1,929 ? -18.4°
Sets 23:54:37 0° 90° (E) 2,829 ? -18.5°
